Mercury, NV

6:05 AM PST on January 16, 2018 (GMT -0800)
Mercury

Weather History for KDRA - January, 2014

Change the Weather History Date:

Tuesday, January 14, 2014

  Actual Average Record
Temperature  
Mean Temperature 50 °F 44 °F  
Max Temperature 64 °F 55 °F 70 °F (2009)
Min Temperature 37 °F 32 °F 16 °F (2013)
Degree Days  
Heating Degree Days 14    
Cooling Degree Days 0    
Moisture  
Dew Point 13 °F    
Average Humidity 24    
Maximum Humidity 44    
Minimum Humidity 4    
Precipitation  
Precipitation 0.00 in 0.02 in 0.09 in (2002)
Month to date precipitation 0.37  
Year to date precipitation 0.37  
Sea Level Pressure  
Sea Level Pressure 30.44 in    
Wind  
Wind Speed 8 mph (NE)    
Max Wind Speed 17 mph    
Max Gust Speed 18 mph    
Visibility 10 miles    
Events      
T = Trace of Precipitation, MM = Missing Value Source: NWS Daily Summary

Daily Weather History Graph

Daily Weather History Graph

Search for Another Location

Airport or City:

Trip Planner

Search our weather history database for the weather conditions in past years. The results will help you decide how hot, cold, wet, or windy it might be!

Date:

Astronomy

Jan. 14, 2014 Rise Set
Actual Time 6:55 AM PST 4:51 PM PST
Civil Twilight 6:27 AM PST 5:19 PM PST
Nautical Twilight 5:55 AM PST 5:51 PM PST
Astronomical Twilight 5:24 AM PST 6:22 PM PST
Moon 3:59 PM PST (1/14) 5:34 AM PST (1/14)
Length of Visible Light 10h 51m
Length of Day
9h 55m
Waxing Gibbous, 98% of the Moon is Illuminated
Jan 14
Waxing Gibbous
Jan 15
Full
Jan 23
Last Quarter
Jan 30
New
Feb 6
First Quarter

Hourly Weather History & Observations

Time (PST) Temp. Windchill Dew Point Humidity Pressure Visibility Wind Dir Wind Speed Gust Speed Precip Events Conditions
12:52 AM 45.0 °F 40.6 °F 18.0 °F 34% 30.41 in 10.0 mi NE 8.1 mph - N/A   Clear
1:52 AM 42.1 °F - 18.0 °F 38% 30.42 in 10.0 mi Calm Calm - N/A   Clear
2:52 AM 37.0 °F - 17.1 °F 44% 30.43 in 10.0 mi Calm Calm - N/A   Clear
3:52 AM 41.0 °F 38.0 °F 16.0 °F 36% 30.43 in 10.0 mi WNW 4.6 mph - N/A   Clear
4:52 AM 37.9 °F 34.4 °F 16.0 °F 41% 30.43 in 10.0 mi West 4.6 mph - N/A   Clear
5:52 AM 39.0 °F 34.0 °F 15.1 °F 38% 30.47 in 10.0 mi SE 6.9 mph - N/A   Clear
6:52 AM 37.9 °F 32.1 °F 14.0 °F 38% 30.49 in 10.0 mi West 8.1 mph - N/A   Clear
7:52 AM 43.0 °F 38.2 °F 15.1 °F 32% 30.53 in 10.0 mi SSW 8.1 mph - N/A   Clear
8:52 AM 53.1 °F - 12.9 °F 20% 30.53 in 10.0 mi NE 13.8 mph - N/A   Clear
11:52 AM 63.0 °F - 9.0 °F 12% 30.45 in 10.0 mi NE 11.5 mph - N/A   Unknown
12:52 PM 64.9 °F - 9.0 °F 11% 30.43 in 10.0 mi NNE 10.4 mph - N/A   Clear
1:52 PM 64.9 °F - 7.0 °F 10% 30.40 in 10.0 mi East 12.7 mph 18.4 mph N/A   Clear
3:52 PM 64.0 °F - 8.1 °F 11% 30.39 in 10.0 mi East 13.8 mph - N/A   Unknown
4:52 PM 61.0 °F - 9.0 °F 13% 30.41 in 10.0 mi ENE 12.7 mph - N/A   Clear
5:52 PM 54.0 °F - 10.9 °F 18% 30.42 in 10.0 mi NE 11.5 mph - N/A   Clear
6:52 PM 51.1 °F - 10.9 °F 20% 30.43 in 10.0 mi NNE 13.8 mph - N/A   Clear
7:52 PM 52.0 °F - 12.0 °F 20% 30.43 in 10.0 mi NE 10.4 mph - N/A   Clear
8:52 PM 50.0 °F - 12.0 °F 22% 30.45 in 10.0 mi NNE 12.7 mph - N/A   Clear
9:52 PM 51.1 °F - 12.0 °F 21% 30.44 in 10.0 mi NNE 17.3 mph - N/A   Clear
10:52 PM 48.9 °F - 12.9 °F 24% 30.43 in 10.0 mi East 10.4 mph - N/A   Clear
11:52 PM 48.9 °F - 12.9 °F 24% 30.42 in 10.0 mi NNE 16.1 mph - N/A   Clear